FLOCK 2E'-8

Last updated on Fri Apr 06 2018 00:15:04 GMT+0000 (Coordinated Universal Time)

1 41569U 98067JT 18095.60046340 .08263427 12312-4 94260-3 0 9990 2 41569 51.6120 297.1335 0009822 279.7919 80.1997 16.35932588105850

Satellite not in orbit